Location: ??? ???
(33.4974°N, 35.4618°E)
Time: 18:01:33
(UTC+00:00)

CZ-4 R/B - Pass Details

Date: 29 October 2020
Orbit: 532 x 598 km, 97.7° (Epoch: 30 November)

Event Time Altitude Azimuth Distance (km) Brightness Sun altitude
Rises 17:19:48 0° 207° (SSW) 2,708 5.1 -32.0°
Reaches altitude 10° 17:22:49 10° 233° (SW) 1,807 4.5 -32.6°
Maximum altitude 17:24:54 14° 266° (W) 1,561 4.4 -33.1°
Drops below altitude 10° 17:26:59 10° 298° (WNW) 1,799 4.6 -33.5°
Sets 17:29:59 0° 324° (NW) 2,687 5.3 -34.1°
